Weather History for Elko, NV

Change the Weather History Date:

Wednesday, December 5, 2012

  Actual Average Record
Temperature  
Mean Temperature 42 °F 28 °F  
Max Temperature 49 °F 39 °F 61 °F (1940)
Min Temperature 34 °F 16 °F -7 °F (1933)
Degree Days  
Heating Degree Days 23 37  
Month to date heating degree days 119 184  
Since 1 July heating degree days 1437 1922  
Cooling Degree Days 0 0  
Month to date cooling degree days 0 0  
Year to date cooling degree days 682 383  
Moisture  
Dew Point 39 °F    
Average Humidity 90    
Maximum Humidity 100    
Minimum Humidity 80    
Precipitation  
Precipitation 0.27 in 0.04 in 0.88 in (1996)
Month to date precipitation 0.49 0.19  
Year to date precipitation 6.13 8.90  
Snow  
Snow 0.00 in 0.30 in 8.00 in (1996)
Month to date snowfall 0.0 1.4  
Since 1 July snowfall 1.8 7.1  
Snow Depth 0.00 in    
Sea Level Pressure  
Sea Level Pressure 30.13 in    
Wind  
Wind Speed 3 mph (SW)    
Max Wind Speed 15 mph    
Max Gust Speed 20 mph    
Visibility 7 miles    
Events Fog , Rain    
T = Trace of Precipitation, MM = Missing Value Source: NWS Daily Summary

Daily Weather History Graph

Daily Weather History Graph

Search for Another Location

Airport:

Trip Planner

Search our weather history database for the weather conditions in past years. The results will help you decide how hot, cold, wet, or windy it might be!

Date:

Astronomy

Dec. 05, 2012 Rise Set
Actual Time 6:52 AM PST 4:15 PM PST
Civil Twilight 6:21 AM PST 4:46 PM PST
Nautical Twilight 5:47 AM PST 5:20 PM PST
Astronomical Twilight 5:14 AM PST 5:53 PM PST
Moon 11:11 PM PST (12/5) 11:16 AM PST (12/5)
Length of Visible Light 10h 24m
Length of Day
9h 22m
Waning Gibbous, 58% of the Moon is Illuminated
Dec 5
Waning Gibbous
Dec 6
Last Quarter
Dec 13
New
Dec 19
First Quarter
Dec 28
Full

Hourly Weather History & Observations

Time (PST) Temp. Windchill Dew Point Humidity Pressure Visibility Wind Dir Wind Speed Gust Speed Precip Events Conditions
12:56 AM 39.9 °F - 39.0 °F 97% 30.13 in 10.0 mi Calm Calm - N/A   Overcast
1:56 AM 39.0 °F - 37.9 °F 96% 30.12 in 10.0 mi Calm Calm - N/A   Overcast
2:56 AM 39.9 °F - 37.9 °F 93% 30.11 in 10.0 mi Calm Calm - N/A   Overcast
3:56 AM 39.0 °F 35.7 °F 37.9 °F 96% 30.12 in 10.0 mi SSW 4.6 mph - 0.00 in Rain Light Rain
4:56 AM 39.9 °F - 37.9 °F 93% 30.14 in 7.0 mi Calm Calm - 0.02 in Rain Light Rain
6:56 AM 41.0 °F 37.1 °F 39.9 °F 96% 30.14 in 10.0 mi West 5.8 mph - 0.08 in Rain Light Rain
7:29 AM 42.8 °F - 41.0 °F 93% 30.14 in 10.0 mi Calm Calm - 0.01 in Rain Light Rain
7:56 AM 42.1 °F - 39.9 °F 92% 30.15 in 4.0 mi Calm Calm - 0.02 in Rain Light Rain
8:41 AM 42.8 °F 39.3 °F 41.0 °F 93% 30.16 in 6.0 mi SW 5.8 mph - 0.04 in Rain Light Rain
8:56 AM 43.0 °F 39.5 °F 42.1 °F 97% 30.17 in 9.0 mi SW 5.8 mph - 0.05 in Rain Light Rain
9:56 AM 46.0 °F 41.9 °F 43.0 °F 89% 30.16 in 10.0 mi SW 8.1 mph - 0.00 in   Overcast
10:08 AM 46.4 °F 44.3 °F 42.8 °F 87% 30.17 in 10.0 mi SSW 4.6 mph - N/A   Overcast
10:54 AM 46.4 °F 41.9 °F 42.8 °F 87% 30.16 in 10.0 mi WSW 9.2 mph - N/A   Overcast
10:56 AM 46.0 °F 41.4 °F 43.0 °F 89% 30.15 in 10.0 mi WSW 9.2 mph - N/A   Overcast
11:56 AM 48.0 °F - 43.0 °F 83% 30.13 in 10.0 mi SW 15.0 mph - N/A   Scattered Clouds
12:56 PM 48.0 °F - 43.0 °F 83% 30.12 in 10.0 mi WSW 12.7 mph - N/A   Overcast
1:56 PM 48.0 °F - 43.0 °F 83% 30.12 in 10.0 mi Variable 3.5 mph - N/A   Mostly Cloudy
2:56 PM 48.9 °F - 43.0 °F 80% 30.10 in 10.0 mi SSW 5.8 mph - N/A   Overcast
3:07 PM 48.2 °F - 42.8 °F 82% 30.12 in 10.0 mi SSW 4.6 mph - N/A   Overcast
3:56 PM 46.9 °F - 42.1 °F 83% 30.11 in 10.0 mi SSW 5.8 mph - N/A   Overcast
4:56 PM 45.0 °F - 41.0 °F 86% 30.11 in 10.0 mi Calm Calm - N/A   Overcast
5:23 PM 44.6 °F - 42.8 °F 93% 30.13 in 10.0 mi Calm Calm - N/A   Overcast
5:56 PM 44.1 °F - 42.1 °F 93% 30.12 in 3.0 mi Calm Calm - 0.02 in Rain Rain
6:56 PM 41.0 °F - 39.9 °F 96% 30.11 in 10.0 mi Calm Calm - 0.01 in   Mostly Cloudy
7:56 PM 39.0 °F - 37.0 °F 93% 30.12 in 8.0 mi Calm Calm - N/A   Partly Cloudy
8:56 PM 37.9 °F - 37.0 °F 97% 30.12 in 10.0 mi Calm Calm - N/A   Mostly Cloudy
9:31 PM 37.4 °F - 37.4 °F 100% 30.12 in 2.5 mi Calm Calm - N/A   Overcast
9:38 PM 37.4 °F - 35.6 °F 93% 30.12 in 7.0 mi Calm Calm - N/A   Mostly Cloudy
9:56 PM 37.0 °F - 37.0 °F 100% 30.12 in 10.0 mi Calm Calm - N/A   Mostly Cloudy
10:45 PM 35.6 °F - 35.6 °F 100% 30.11 in 1.2 mi Calm Calm - N/A   Scattered Clouds
10:47 PM 35.6 °F - 35.6 °F 100% 30.11 in 0.8 mi Calm Calm - N/A   Mostly Cloudy
10:56 PM 37.0 °F - 35.1 °F 93% 30.11 in 2.0 mi Calm Calm - N/A   Scattered Clouds
11:05 PM 33.8 °F - 33.8 °F 100% 30.11 in 0.8 mi Calm Calm - N/A   Scattered Clouds
11:13 PM 35.6 °F - 33.8 °F 93% 30.11 in 0.8 mi Calm Calm - N/A   Mostly Cloudy
11:19 PM 35.6 °F - 35.6 °F 100% 30.11 in 0.2 mi Calm Calm - N/A Fog Fog
11:43 PM 33.8 °F - 33.8 °F 100% 30.11 in 0.5 mi Calm Calm - N/A Fog Fog
11:56 PM 35.1 °F - 34.0 °F 96% 30.10 in 0.2 mi Calm Calm - N/A Fog Fog